RH
52 57 66 78 93 95 95 95 91 85 74 60 54 56 62 73 87 97 97 96 95 93 95 99 98 93 97 98 89 80 69 62 56 50 48 41 37 37 36 34 31 28 27 28 29 28 30 32 32 30 28 29 31 33 33 32 31 29 26 24 21 18 19 22 40 56 51 48 47 41 37 35 35 35 32 25 16 9 6 8 7 12 26 32 31 30 29 28
73 75 79 86 93 95 95 92 83 69 51 37 47 63 67 69 76 86 91 93 95 90 89 94 95 94 94 84 68 63 54 44 45 47 48 45 41 39 35 34 32 31 31 33 34 33 31 30 30 30 31 31 32 31 30 30 29 26 24 21 17 15 17 21 33 46 45 43 46 44 40 37 35 32 23 12 7 5 6 8 8 13 27 34 29 26 25 25
79 82 84 86 89 89 87 84 72 52 38 29 45 71 73 75 85 92 93 92 93 88 85 90 93 92 84 62 44 48 51 50 54 50 47 44 37 34 33 34 33 33 33 33 33 32 32 31 31 31 31 31 30 29 26 25 24 24 24 19 15 15 16 18 23 29 31 32 33 33 32 31 29 23 13 7 5 7 8 8 8 10 20 30 30 27 26 24
76 75 75 77 79 79 77 75 60 39 32 24 37 72 81 85 97 100 97 97 97 92 88 86 83 78 66 52 45 51 55 54 51 43 40 37 32 32 31 31 31 30 30 28 27 26 25 24 24 24 23 24 22 22 20 17 19 22 22 17 16 19 16 16 19 19 20 18 15 15 16 17 16 11 9 9 7 9 11 9 6 6 10 17 21 22 22 21
70 67 66 67 69 73 71 61 44 29 26 20 23 56 82 93 97 96 97 95 86 75 70 66 62 57 50 50 52 51 47 42 37 34 33 30 28 28 25 25 24 23 22 20 19 17 17 16 17 17 16 17 16 15 15 14 17 20 20 16 19 21 15 14 16 15 14 11 8 8 9 10 9 9 12 13 10 8 10 8 7 5 5 8 10 10 11 13
68 67 64 62 62 63 60 47 36 30 23 19 19 33 57 77 85 88 88 81 66 51 48 47 45 47 46 46 43 36 32 30 30 30 28 25 21 19 16 15 14 14 15 14 14 14 14 14 13 13 13 13 13 12 13 16 17 17 17 16 19 21 15 12 13 12 11 9 9 9 9 8 8 11 13 14 12 9 8 8 8 6 6 5 5 6 7 7
70 69 67 63 60 57 54 46 41 35 22 20 24 23 28 41 53 61 59 53 49 43 39 38 38 39 36 32 27 24 23 23 24 23 21 18 14 12 11 12 12 13 14 14 14 14 13 13 12 11 10 10 10 10 13 15 16 16 15 15 17 18 14 12 11 11 9 8 9 9 7 8 11 14 15 15 14 12 10 9 7 6 5 5 6 6 7 7
62 60 61 60 59 55 52 52 49 44 31 26 27 22 19 21 27 31 29 29 34 35 33 31 29 27 24 21 20 20 18 16 16 16 14 13 12 12 13 13 14 14 14 14 14 13 12 11 10 10 9 9 9 10 12 12 14 15 14 16 16 14 12 10 9 7 7 7 7 7 7 12 15 17 20 19 17 14 12 10 8 6 6 7 8 9 11 11
58 53 48 45 49 47 45 46 48 52 46 38 34 25 19 18 20 19 18 19 22 24 23 21 20 18 17 18 19 18 17 16 16 16 15 14 14 14 14 14 14 14 13 13 12 12 12 11 10 9 8 7 7 7 8 9 11 11 10 12 11 10 9 8 7 6 6 6 6 8 13 19 20 20 23 23 21 19 16 15 12 9 10 11 13 15 18 17
57 53 38 28 32 36 41 36 33 46 53 47 40 30 22 18 17 17 16 15 14 15 15 15 15 16 17 18 19 19 19 19 20 20 19 17 15 14 14 14 13 13 13 13 13 12 12 11 10 8 6 6 5 6 7 8 9 8 8 8 8 7 8 9 9 7 7 7 8 12 16 19 20 18 21 21 21 21 21 22 19 16 15 18 21 22 23 21
57 51 31 21 23 24 30 29 24 34 45 46 38 26 23 22 18 17 16 15 14 13 15 16 17 19 20 21 21 21 22 24 22 21 19 16 14 14 13 13 13 13 13 13 13 13 13 12 9 7 6 5 6 7 8 8 7 7 7 6 6 9 13 16 13 11 13 13 12 12 13 16 17 15 19 20 18 20 22 24 23 22 22 24 26 26 25 23
59 47 27 20 21 18 20 23 23 26 32 37 32 17 16 22 23 23 22 21 20 20 22 22 22 22 22 22 22 21 23 23 19 17 15 13 13 13 13 13 13 13 13 13 13 14 13 11 8 6 6 5 6 6 7 8 8 7 7 6 8 14 19 19 19 18 18 19 17 15 13 16 19 17 18 19 19 21 23 25 25 25 26 28 28 27 26 25
56 37 22 19 18 17 19 19 20 22 26 29 25 16 12 15 20 24 25 25 25 26 26 25 23 21 22 21 20 19 19 17 14 13 13 13 13 13 13 13 13 13 13 14 14 13 12 9 7 5 5 5 5 6 7 8 7 7 7 9 13 19 21 19 21 21 20 23 23 20 18 19 22 21 21 22 23 24 24 25 27 27 29 29 28 28 27 27
44 25 18 18 16 16 16 16 15 17 20 21 18 14 11 11 13 16 18 19 20 21 20 20 19 18 18 17 16 16 15 14 14 13 13 13 13 13 14 13 12 11 12 13 13 11 9 7 6 5 5 5 6 7 8 8 8 10 13 18 22 23 23 19 20 23 24 26 24 22 21 20 23 26 25 26 25 26 26 27 28 28 29 28 29 29 29 29
29 18 16 16 15 16 16 17 18 17 16 16 15 14 12 12 11 11 12 13 13 14 13 13 14 14 13 13 13 14 14 14 14 14 14 14 14 14 14 12 11 9 9 10 10 9 8 6 5 6 7 8 9 8 9 12 15 18 22 27 28 25 22 18 20 25 25 23 20 21 24 23 24 27 27 27 26 26 27 28 28 28 29 30 31 31 31 30
18 16 17 19 21 24 26 27 27 26 25 22 20 17 15 14 13 13 12 12 12 12 12 12 12 12 13 14 15 17 18 18 17 15 14 13 13 12 11 10 9 9 9 9 9 8 7 7 8 8 10 11 12 10 12 19 23 24 26 27 27 25 22 19 21 25 22 18 16 20 26 25 24 25 26 27 27 28 29 29 30 31 32 33 33 32 31 30
17 20 23 27 30 30 31 32 32 32 31 29 27 23 20 19 17 16 15 15 15 14 14 14 14 14 14 17 19 21 21 18 16 15 15 14 12 11 10 9 8 9 10 9 8 7 8 12 12 10 10 11 13 15 17 23 26 27 28 28 27 28 27 23 22 21 17 16 18 23 28 28 27 27 28 29 31 32 33 31 31 32 33 34 33 32 31 29
22 27 30 32 31 31 31 31 31 31 31 29 28 26 25 24 22 21 20 20 20 19 19 19 20 18 19 23 25 24 22 19 18 18 17 15 13 11 10 9 9 9 9 8 8 10 13 14 11 10 11 11 15 21 25 27 29 30 33 31 28 27 25 21 20 17 16 20 26 30 32 32 33 33 34 35 35 34 33 32 32 32 32 32 32 32 31 29
29 31 32 32 31 31 30 29 29 28 28 27 25 26 26 25 25 25 25 24 23 21 22 25 24 21 22 25 24 23 20 18 18 17 16 13 12 11 10 9 10 9 8 8 11 13 14 12 10 11 15 17 20 25 27 28 31 33 33 30 24 19 16 16 17 19 23 32 37 37 37 37 37 36 34 32 31 31 33 34 35 34 33 33 33 33 32 31
33 32 32 31 31 30 30 31 31 29 27 25 24 24 23 24 27 27 24 21 20 19 20 22 21 19 20 19 17 16 15 14 13 12 11 11 11 10 10 10 10 9 8 9 10 11 12 11 10 15 21 26 27 27 26 26 29 28 26 22 18 15 15 16 19 22 30 39 42 42 38 34 31 28 26 25 26 30 34 37 37 37 36 36 35 35 34 33
31 31 31 31 31 32 33 34 36 34 31 28 28 27 23 22 27 26 19 16 15 15 15 14 15 15 15 15 14 13 12 12 12 11 11 11 12 11 11 11 10 10 9 8 8 10 11 11 15 23 27 29 29 27 25 23 21 19 18 17 15 16 17 19 25 31 38 39 36 34 31 28 25 24 23 23 28 34 38 40 41 40 39 38 37 36 35 35
30 30 31 30 32 33 34 35 37 38 36 33 33 32 28 23 22 19 14 14 15 15 15 15 15 15 16 15 14 14 13 13 13 12 11 12 12 11 11 11 11 11 9 9 9 10 12 15 23 26 23 24 24 22 20 18 17 17 18 18 17 18 20 23 29 33 35 30 26 25 25 24 23 23 25 28 33 39 42 44 44 43 41 41 39 38 37 36
30 30 29 28 30 33 34 35 36 38 37 36 35 34 32 26 21 16 12 17 20 19 20 20 19 18 18 16 14 14 12 10 13 12 11 12 11 11 11 11 10 9 9 10 10 12 14 18 23 21 18 21 19 17 17 17 18 19 19 19 19 19 20 21 20 18 19 18 19 22 26 26 25 26 30 34 39 45 48 48 49 47 46 44 41 40 39 38
31 31 30 28 28 30 33 35 35 36 36 36 36 35 33 29 24 16 14 22 26 25 25 24 23 21 18 16 12 11 11 12 15 14 13 13 11 11 11 10 10 10 11 13 13 16 17 19 20 20 20 19 16 17 18 19 20 17 18 20 18 15 14 13 10 10 13 17 19 24 33 35 31 34 37 38 42 50 54 55 55 53 50 48 45 43 42 41
32 33 32 31 29 28 28 32 34 34 34 35 35 35 34 30 26 17 14 24 29 29 29 26 26 24 17 14 10 10 15 17 16 15 13 10 10 10 10 10 11 12 15 15 14 16 18 22 22 21 19 17 17 18 17 18 16 12 16 17 11 7 6 7 8 9 13 23 30 33 43 48 39 38 41 39 45 53 57 59 59 58 55 51 49 47 46 46
33 34 34 35 33 30 27 29 32 31 32 33 34 35 33 30 27 17 13 25 30 29 27 24 25 23 16 12 10 13 18 16 13 12 10 9 10 9 8 11 12 13 15 13 14 18 21 23 21 18 19 19 19 18 16 16 11 10 14 9 4 5 7 6 7 10 13 23 34 35 42 51 42 37 39 40 47 52 54 59 61 61 61 58 55 53 51 49
32 32 34 35 34 32 28 27 29 30 31 31 33 34 32 30 25 14 17 31 33 27 26 26 25 20 16 13 10 12 14 12 12 11 9 9 10 10 10 12 12 12 13 12 17 24 23 21 20 20 21 21 19 17 15 12 7 8 9 4 5 7 6 6 5 9 10 14 29 34 36 45 43 38 40 42 48 52 52 58 63 66 68 65 62 59 56 55
30 31 32 33 32 30 27 26 28 30 31 32 33 32 32 30 20 14 26 35 30 25 26 26 23 17 14 13 10 11 10 10 11 10 10 11 10 12 14 14 13 12 14 16 19 22 22 21 23 24 22 21 20 18 14 9 5 6 6 5 8 7 7 7 4 6 10 17 27 30 31 40 42 36 36 41 47 50 51 57 66 73 75 74 72 69 67 67
30 30 30 29 28 26 25 27 29 31 32 31 31 31 31 26 13 16 31 32 24 25 25 22 18 14 12 11 11 11 10 10 11 10 11 12 12 13 16 16 16 17 18 19 18 20 24 25 25 24 22 22 21 18 13 7 5 6 6 7 8 8 6 5 8 11 17 27 28 25 28 33 33 27 27 35 40 41 45 54 64 73 79 81 82 81 80 79
26 26 26 26 26 27 27 30 30 31 31 29 30 31 27 17 13 23 29 24 21 24 26 22 14 11 12 12 12 12 12 11 10 12 15 15 14 15 19 19 20 24 20 16 19 22 24 25 26 25 25 24 21 17 11 7 7 7 9 10 8 9 6 8 19 15 20 35 32 25 24 23 27 26 24 31 34 35 43 52 60 70 78 84 87 88 87 84
19 19 22 23 25 27 27 29 28 28 27 28 30 28 19 13 20 30 25 18 20 22 24 20 11 12 14 13 13 13 13 13 12 17 20 20 16 16 21 18 18 25 19 11 16 17 16 20 25 26 27 24 19 15 10 7 9 10 13 13 6 8 10 15 21 16 28 44 30 19 18 18 26 26 24 32 35 38 47 54 63 73 81 87 90 89 87 84
15 15 17 18 20 21 22 24 24 25 27 29 28 19 13 17 24 25 18 19 24 19 17 16 12 15 16 13 14 15 16 16 16 19 20 20 18 14 14 9 7 13 12 9 11 10 14 24 27 26 23 20 17 14 10 7 11 15 18 14 13 27 34 35 37 34 41 40 20 16 20 20 26 24 25 33 36 41 48 55 66 78 86 91 91 89 86 82
14 15 16 16 18 18 20 23 24 27 28 26 21 12 13 22 23 18 15 20 24 17 13 15 14 18 20 16 15 17 20 20 18 21 20 20 21 14 9 6 3 4 6 9 9 9 19 27 25 21 17 16 19 16 10 11 17 21 22 15 20 43 55 56 59 51 41 30 17 19 26 30 34 33 31 35 39 46 52 59 71 81 89 91 88 87 84 77
14 15 17 17 19 21 23 25 26 26 23 18 14 10 14 21 19 15 13 14 17 14 13 17 18 22 26 22 18 16 19 22 20 22 22 22 21 12 6 6 4 3 4 7 11 14 20 21 18 17 14 18 22 17 11 16 22 25 26 21 20 32 40 46 54 47 38 34 24 21 28 37 42 43 42 44 48 54 62 73 81 86 90 88 85 84 79 71
15 17 18 20 22 23 23 23 22 19 16 13 10 10 15 17 15 16 14 11 12 12 16 20 21 27 28 23 21 17 17 23 24 25 25 21 16 9 6 5 2 3 4 6 13 17 16 15 17 16 16 22 23 15 12 17 24 28 27 25 25 28 31 38 42 36 35 44 39 29 32 37 42 46 47 50 56 59 71 84 86 88 90 87 84 78 69 59
17 18 19 21 22 21 20 18 16 13 12 11 9 12 17 15 14 16 13 11 11 12 18 20 21 27 26 21 22 18 18 23 24 25 23 18 16 11 7 5 2 4 4 4 13 16 10 10 16 17 20 24 19 12 12 17 24 31 30 29 32 33 35 40 40 34 40 55 51 33 29 33 41 49 47 50 60 66 74 84 87 90 91 84 77 67 55 45
15 15 15 17 16 15 14 13 11 11 10 10 11 15 17 15 14 13 10 11 11 12 19 21 18 20 18 18 20 15 16 21 22 22 20 17 19 15 8 6 3 3 4 5 11 14 10 9 16 22 23 22 16 9 11 16 26 35 35 35 36 35 36 40 44 51 59 65 52 31 27 32 40 53 55 54 61 70 76 85 92 92 85 76 64 52 43 37
11 11 11 11 11 11 11 10 10 11 10 11 13 15 14 13 12 11 9 11 11 11 14 17 15 14 15 16 14 8 14 21 20 20 19 15 17 17 11 6 4 3 4 6 8 10 11 11 18 25 22 17 13 8 9 15 25 33 37 38 35 33 38 41 44 53 60 61 54 41 32 32 37 49 54 52 55 61 68 79 91 88 74 63 52 41 36 33
8 9 9 10 10 10 10 10 10 11 11 11 12 12 11 11 10 10 9 10 12 11 10 13 14 15 13 11 6 5 12 17 14 14 15 12 15 19 11 3 4 5 3 7 8 8 13 16 18 22 18 12 9 7 7 11 19 28 34 36 29 27 35 38 35 39 50 57 61 58 47 36 39 43 41 46 52 54 60 72 82 75 57 47 41 35 34 32
6 6 8 9 10 10 10 10 10 11 11 10 11 10 9 10 9 9 9 10 13 13 13 14 14 11 8 4 4 5 7 8 8 8 9 10 14 16 9 3 5 4 3 6 7 8 14 16 13 13 12 9 8 9 10 13 21 27 31 32 28 23 24 27 24 24 38 53 61 71 64 40 34 39 38 45 52 55 65 73 68 52 37 34 35 35 35 32
5 5 7 9 9 8 8 9 9 10 10 9 10 9 9 10 8 8 10 12 14 15 14 13 9 5 3 3 3 4 5 5 5 5 6 8 10 9 5 3 4 3 4 5 5 9 10 9 11 11 9 8 8 10 13 19 25 30 34 34 28 22 20 32 41 30 30 47 54 64 67 43 33 42 46 48 54 65 75 70 52 37 30 33 35 34 33 32
5 5 6 6 6 6 7 8 8 8 8 8 9 9 9 9 9 10 12 14 16 15 12 7 4 2 3 3 2 4 6 7 6 5 5 5 6 5 3 3 3 3 4 4 6 9 7 10 17 14 9 9 10 12 18 26 31 34 38 32 23 20 20 35 52 38 32 49 53 61 73 58 41 45 48 48 59 75 76 57 41 38 37 37 34 32 34 35
5 5 6 5 6 6 7 7 7 7 8 9 9 9 8 9 11 13 14 16 14 10 6 3 3 3 3 3 3 3 6 10 8 5 3 3 4 4 3 3 3 4 5 6 9 9 9 17 20 12 8 8 8 15 27 34 38 36 30 22 19 20 19 29 43 44 52 61 61 75 86 62 43 46 49 53 68 77 67 50 44 45 41 36 35 34 35 34
6 6 6 6 7 8 7 6 7 7 7 8 8 8 9 11 14 15 15 13 9 5 3 2 3 3 3 4 4 3 5 8 8 5 3 3 3 3 3 3 4 5 5 7 9 9 10 16 17 15 20 19 15 22 28 28 29 26 20 18 19 18 24 36 46 60 78 74 64 84 88 56 45 54 53 61 75 73 60 53 51 47 41 38 37 35 36 38
7 6 7 7 8 10 8 6 6 7 7 8 8 10 12 14 15 13 10 6 4 3 3 3 3 3 4 4 4 4 4 4 5 4 3 3 3 3 4 4 5 5 6 7 9 10 10 11 12 18 28 32 28 26 24 20 21 20 17 18 18 18 26 38 50 70 86 75 64 79 77 52 46 54 55 64 75 69 58 54 51 48 44 41 38 39 46 52
8 8 8 8 8 8 7 6 6 7 7 8 9 12 14 14 12 8 4 2 3 3 3 4 4 4 4 4 3 4 4 4 5 3 3 4 3 4 5 5 6 6 8 9 9 10 11 11 13 18 23 24 22 20 20 21 21 18 16 15 15 17 22 32 54 70 70 67 67 62 57 52 47 43 46 59 70 67 59 55 54 49 44 41 44 50 56 55
10 9 7 7 7 6 6 6 7 8 9 11 13 14 13 11 8 4 3 3 3 3 3 4 4 4 4 4 4 3 3 4 5 3 3 4 4 5 6 6 8 9 9 10 10 11 12 11 14 19 20 19 18 18 19 21 21 18 17 16 14 18 22 29 45 48 46 67 73 46 38 51 46 35 41 56 68 66 60 58 55 47 44 49 53 52 49 43
9 8 7 9 9 6 6 7 8 10 12 13 14 12 9 6 5 3 3 3 3 4 4 4 4 4 4 4 4 3 4 4 4 4 4 5 5 6 6 8 11 11 10 11 12 12 13 14 15 18 20 18 18 19 19 19 20 19 19 19 18 21 25 27 32 31 38 62 63 38 37 49 45 44 54 64 68 65 60 57 50 47 53 58 54 46 41 36
7 6 8 11 9 7 8 9 10 11 13 14 12 8 4 3 3 2 2 3 4 4 4 4 4 4 4 4 4 4 4 4 4 5 5 6 7 7 7 9 12 11 11 12 12 14 16 16 18 19 19 16 15 18 20 20 22 21 19 20 22 24 26 28 31 32 39 48 46 44 52 53 48 54 63 65 65 62 58 54 53 59 64 59 51 45 42 39
7 6 8 9 9 8 10 11 12 13 13 12 8 3 2 2 2 3 3 3 4 4 4 4 5 4 4 4 4 4 5 5 5 6 6 7 8 8 9 10 11 11 12 13 14 16 16 17 19 20 18 15 14 18 22 25 27 25 19 20 25 27 27 29 33 39 48 52 52 58 64 58 55 62 65 65 63 58 57 58 63 67 66 62 59 52 47 44
9 9 9 9 10 11 11 12 13 13 11 8 4 2 2 2 2 3 3 4 4 4 4 4 4 4 4 4 4 5 5 6 6 7 7 8 8 9 10 10 11 12 13 14 15 15 17 19 20 22 23 19 16 21 25 26 27 25 21 23 27 27 29 35 42 50 58 62 63 66 68 64 63 67 66 60 56 55 58 66 75 77 73 73 67 52 46 53
11 11 11 11 11 12 12 12 13 10 6 4 3 2 3 2 3 4 4 4 5 4 5 4 4 5 4 4 5 6 6 7 7 8 8 8 9 10 10 10 12 13 13 15 16 16 19 21 22 28 32 23 18 26 29 29 32 28 23 26 28 29 33 39 46 53 60 67 71 71 70 68 68 70 65 57 55 59 64 74 90 96 85 69 57 50 56 73
Wind_Speed
10 10 10 11 10 10 10 10 9 9 9 9 10 11 13 15 18 21 24 24 23 23 22 19 15 15 15 14 13 12 10 9 7 6 6 6 6 7 7 8 8 9 9 8 7 8 9 10 11 10 10 11 11 11 10 10 11 11 11 12 11 9 7 6 8 10 12 12 14 16 17 18 20 21 23 23 22 22 21 17 13 9 11 12 11 13 12 12
6 6 7 10 10 10 10 9 8 7 6 6 7 9 10 10 12 14 16 20 22 20 18 18 16 15 14 12 10 9 8 8 7 6 6 7 7 7 8 8 8 8 8 8 8 9 10 10 11 10 10 11 12 12 12 12 12 12 13 14 12 9 8 7 10 12 14 16 17 20 20 21 23 24 25 24 21 20 18 14 9 9 13 13 14 17 17 17
5 5 6 8 9 10 9 8 8 7 7 7 7 7 7 6 6 6 5 8 9 5 6 12 15 15 14 12 10 7 6 6 6 6 7 7 7 7 7 7 8 8 8 9 9 10 11 11 11 11 12 13 14 15 14 14 14 13 14 17 12 9 10 10 10 13 15 18 19 21 23 23 23 23 22 22 19 16 14 13 11 12 15 16 18 19 19 19
7 6 6 7 8 8 8 9 9 9 10 9 6 5 5 7 7 6 6 5 5 5 7 10 12 12 12 10 9 7 6 5 6 7 7 6 7 7 7 8 8 8 8 9 10 10 11 12 12 12 12 13 15 16 14 14 14 14 15 16 12 11 13 11 10 13 15 18 20 20 20 20 20 20 19 17 14 11 12 14 14 14 17 20 22 21 21 20
8 7 6 5 5 6 7 9 10 10 10 9 7 5 6 8 8 8 7 7 8 8 9 10 10 11 10 9 8 7 6 5 5 6 6 6 7 7 7 7 7 8 8 9 10 10 10 11 12 11 12 12 14 15 13 11 13 15 16 15 12 13 15 12 13 15 16 18 19 18 17 17 17 18 15 11 10 12 14 15 15 16 17 18 19 20 21 20
9 7 6 5 4 4 7 9 9 9 10 9 7 7 8 8 9 9 9 9 9 10 10 10 10 10 9 8 7 7 6 5 4 6 6 6 6 7 7 7 7 7 8 9 9 9 9 10 10 11 11 12 14 13 11 12 14 17 16 15 15 16 17 16 16 17 18 18 17 17 16 16 16 16 13 10 9 12 14 15 14 14 13 14 14 15 17 17
10 8 7 6 6 5 7 8 8 8 8 8 7 7 8 9 9 9 9 9 10 10 10 10 9 9 8 8 7 6 6 5 5 5 6 7 8 8 7 6 6 6 7 7 7 8 9 9 9 11 11 12 13 12 12 15 16 17 17 16 17 18 18 18 19 19 18 17 16 16 15 15 15 12 11 7 7 9 12 13 12 11 10 10 10 12 14 16
9 8 7 7 8 8 7 7 7 9 8 7 7 6 6 8 9 9 9 9 10 10 9 9 8 8 8 7 6 6 5 5 5 6 7 7 7 7 6 6 6 6 6 7 7 8 8 9 10 11 11 11 12 12 14 15 15 16 17 18 19 18 18 18 18 18 16 15 14 13 11 12 11 8 6 2 3 7 9 10 10 9 8 8 10 12 15 18
8 7 5 7 9 8 7 5 5 8 11 9 8 6 6 8 9 9 9 9 9 9 9 8 8 7 7 7 6 5 5 5 5 6 6 7 7 6 6 6 6 6 6 7 8 8 8 9 11 11 11 11 12 12 13 14 14 13 14 17 17 16 16 16 15 13 12 10 8 5 3 6 8 6 5 4 4 7 9 10 11 9 8 10 13 15 18 19
7 5 4 5 6 7 6 4 4 5 10 11 9 7 8 9 9 9 9 8 8 8 8 7 7 7 7 6 5 6 6 6 6 7 7 8 7 7 6 6 7 7 7 7 8 8 9 11 12 12 11 11 11 11 12 14 13 12 13 15 14 13 12 10 8 6 5 3 0 2 5 4 5 9 10 8 6 9 10 11 13 12 13 15 18 20 21 20
4 3 4 4 5 6 6 5 4 4 6 8 9 9 9 9 9 8 8 8 8 7 7 7 7 6 5 5 6 7 7 7 7 8 9 9 8 7 6 7 7 7 8 9 8 9 11 11 12 12 11 10 9 9 11 12 12 12 13 12 10 8 4 2 2 1 3 3 3 4 5 2 4 10 14 12 10 11 13 15 16 17 18 20 22 23 23 22
4 2 3 4 5 5 5 4 5 5 6 6 7 9 10 10 9 8 8 7 7 7 7 6 6 6 6 7 8 8 8 8 8 9 9 8 7 7 7 8 8 8 9 10 9 10 12 11 11 11 11 10 10 9 10 11 12 12 12 11 6 2 1 2 2 1 3 2 2 4 5 3 5 11 15 15 12 12 14 17 19 20 22 24 25 26 25 23
4 3 3 4 5 6 6 5 5 6 7 6 6 8 9 9 10 10 9 8 7 7 7 6 6 6 7 8 8 9 8 8 8 9 9 8 7 7 8 9 9 9 9 10 10 10 11 12 11 11 11 10 10 10 9 10 11 11 12 10 4 3 2 1 1 1 3 2 2 5 6 7 9 13 15 15 13 13 15 18 21 22 24 27 28 27 25 25
6 5 5 6 7 7 7 7 6 6 6 4 4 6 6 7 8 9 8 8 7 7 7 6 7 7 7 7 7 7 7 7 8 8 8 8 8 7 8 9 9 9 9 10 10 11 11 11 10 10 10 9 9 9 9 9 9 9 8 6 3 3 3 3 4 3 2 1 5 8 9 12 12 14 15 15 14 14 17 20 23 25 28 29 29 27 27 28
7 7 8 9 10 10 9 9 8 7 6 6 5 6 6 6 6 7 7 7 6 6 6 6 6 6 6 6 6 6 6 7 8 8 8 8 8 7 7 8 9 10 11 10 11 12 11 10 9 8 7 7 7 8 8 6 5 5 3 2 4 6 6 7 7 4 3 6 9 9 11 13 14 15 15 16 16 16 18 21 25 28 30 29 28 28 29 30
9 10 11 11 12 11 10 9 8 7 7 6 7 6 6 6 6 6 6 5 5 5 5 4 4 4 4 5 5 6 7 8 8 8 8 8 8 8 8 9 9 11 11 11 11 11 10 8 6 5 4 5 6 7 6 3 3 3 3 4 7 10 11 10 8 9 11 12 10 9 11 14 15 16 17 17 18 19 20 24 27 28 28 28 28 29 29 29
12 13 12 11 11 10 9 8 7 6 5 5 5 6 6 6 6 6 5 5 4 4 4 3 3 4 4 4 4 5 7 7 7 7 8 9 9 9 9 9 9 9 10 10 9 9 7 4 3 3 4 5 6 7 5 3 4 5 7 9 11 12 14 15 14 15 16 13 10 10 13 16 17 19 20 21 21 22 23 26 28 29 28 27 27 26 26 26
14 13 12 10 9 8 7 7 6 5 4 3 3 3 4 5 4 5 4 3 3 3 3 3 3 4 5 4 4 5 7 7 8 9 11 11 11 10 10 9 8 7 8 8 7 6 5 4 4 5 5 6 7 7 5 5 7 9 11 13 15 17 18 19 18 16 14 10 8 9 13 17 19 21 22 22 24 25 27 28 28 29 28 27 26 24 23 22
13 12 10 9 8 7 7 7 6 5 4 3 3 3 3 2 3 3 2 1 2 2 2 2 4 5 5 5 6 8 9 9 10 12 12 11 10 9 7 7 7 6 6 6 5 5 5 5 6 5 4 5 6 6 6 7 10 12 15 17 19 20 20 18 17 15 11 6 5 9 13 16 18 20 22 24 27 28 28 28 27 27 26 26 25 23 22 20
12 10 9 8 8 8 7 7 7 5 4 3 4 4 4 3 3 3 1 1 2 3 3 4 5 6 6 6 8 8 7 8 9 9 8 6 6 6 6 5 5 6 6 6 6 5 4 5 6 4 2 3 4 6 6 9 13 16 18 20 20 20 18 15 13 13 8 2 4 9 12 16 18 21 24 27 29 30 28 27 26 25 24 24 23 22 21 20
11 9 8 8 8 8 7 7 7 6 4 3 4 4 5 4 2 2 1 2 3 4 4 4 4 4 4 4 4 3 3 4 4 2 2 3 3 4 5 4 5 7 7 7 6 5 4 5 4 3 3 5 7 9 11 12 15 16 18 19 18 17 16 12 9 7 5 3 6 11 15 19 21 23 26 28 29 29 28 26 25 24 23 23 23 23 22 21
9 8 8 7 7 7 7 6 5 5 4 3 3 3 4 3 1 0 2 1 1 2 2 2 3 3 2 3 3 2 3 4 3 2 3 2 2 4 5 5 6 7 8 6 6 6 6 4 3 5 7 9 11 13 14 14 14 14 14 14 13 12 12 10 6 5 8 11 13 16 19 20 23 25 27 28 28 26 25 24 23 23 23 23 24 24 23 22
8 8 6 6 6 5 5 5 4 3 3 3 2 3 2 2 1 1 1 1 2 4 6 6 6 5 4 4 5 3 3 4 3 3 3 3 3 4 4 5 6 6 6 5 5 6 6 5 6 9 9 9 11 12 12 12 11 10 10 10 9 9 10 10 11 12 14 16 18 19 19 20 24 26 26 26 26 25 23 23 23 23 23 23 23 23 23 22
7 6 5 5 4 4 5 4 4 3 1 1 1 2 2 1 1 2 1 4 6 6 7 5 4 3 2 5 5 3 4 3 1 1 2 3 4 4 3 3 5 5 5 5 5 5 6 6 7 8 8 9 11 10 9 8 7 8 9 8 9 11 12 14 16 17 16 16 16 14 13 16 21 23 24 25 25 24 23 23 23 23 23 23 23 23 22 22
7 5 4 3 2 2 4 4 4 4 3 1 1 2 1 1 2 2 3 6 6 5 5 4 3 2 2 5 6 4 3 2 2 3 2 3 3 3 3 3 3 4 3 3 3 5 5 4 4 6 8 9 8 6 7 7 8 10 9 9 13 14 14 14 16 18 17 10 5 4 4 8 15 19 22 25 25 24 23 23 23 23 24 24 23 23 22 22
6 5 4 3 2 2 3 4 4 5 4 2 2 2 1 1 2 3 3 5 4 4 3 2 2 3 4 5 6 4 3 3 3 3 3 4 4 4 3 2 2 2 1 2 2 2 1 2 3 5 7 7 5 6 7 9 13 12 10 13 15 15 15 15 15 16 14 8 5 7 7 9 14 20 22 24 25 25 24 24 25 25 25 24 24 24 24 24
5 5 5 4 4 4 4 4 5 5 5 3 2 2 2 2 4 3 3 4 2 3 3 1 1 3 5 5 5 4 3 2 2 3 4 5 4 4 3 2 3 1 1 0 1 2 1 2 4 5 6 5 4 7 10 13 15 12 13 16 15 15 16 15 15 15 16 16 11 8 7 9 12 16 19 22 24 25 27 27 27 26 25 25 25 25 25 26
7 7 7 6 6 6 6 6 6 6 5 4 3 3 2 2 4 2 4 3 2 2 2 2 2 4 5 5 4 3 2 2 2 4 5 6 5 4 3 3 3 1 2 3 2 2 1 3 4 5 5 4 6 10 13 16 16 14 15 16 16 17 16 15 17 17 16 15 10 4 3 4 9 12 15 20 23 25 27 28 27 26 26 25 25 25 26 26
8 8 8 8 7 7 7 7 7 6 5 4 3 3 2 3 4 4 4 2 2 1 2 2 2 3 4 3 3 2 3 3 3 4 5 4 5 4 3 3 3 4 4 3 3 1 1 3 3 4 5 5 9 12 14 17 15 15 16 16 17 16 16 17 15 12 9 8 7 4 5 4 6 14 16 18 22 25 26 28 28 27 26 26 25 25 25 26
9 9 8 8 8 7 8 8 7 6 5 4 3 2 3 4 4 6 2 2 3 2 1 1 3 2 2 2 2 2 3 3 3 5 5 5 6 5 3 3 3 3 3 4 4 2 2 3 3 4 5 7 11 12 15 17 16 17 18 17 18 16 18 16 9 8 7 5 5 4 8 11 7 14 18 17 21 24 25 27 27 28 27 27 26 26 27 29
7 7 7 7 7 7 8 7 6 5 4 3 2 3 3 3 5 4 2 4 3 1 0 1 3 0 1 2 1 2 2 3 4 6 5 4 5 3 3 5 3 1 2 5 4 3 3 3 2 4 5 8 11 11 14 16 16 18 16 17 20 17 16 9 3 7 5 4 6 8 16 18 10 14 19 18 21 23 25 27 27 28 29 28 28 29 31 33
4 4 4 5 5 6 6 5 4 4 3 3 3 3 3 3 4 3 3 4 3 0 2 1 1 4 2 2 3 3 2 3 5 6 6 5 5 5 5 8 7 3 2 6 6 5 3 2 2 3 7 10 12 12 15 16 16 17 15 17 17 11 9 5 3 5 3 7 12 16 21 19 15 19 21 20 22 24 26 28 29 29 28 28 29 31 33 35
3 3 3 3 3 4 4 4 3 3 3 3 3 3 3 3 3 4 4 3 3 3 3 3 4 5 3 3 4 4 2 3 5 5 7 8 8 9 9 10 10 8 6 7 8 6 4 3 3 4 9 10 11 15 17 17 16 15 14 17 12 4 4 4 4 3 4 12 22 25 20 13 14 20 20 20 22 24 26 28 29 29 28 28 30 31 33 36
2 2 2 2 3 3 4 3 3 3 3 3 2 3 4 3 3 5 4 3 4 4 3 4 6 5 2 2 3 3 1 3 4 4 6 6 5 8 9 9 10 10 10 9 9 7 3 2 4 6 8 8 9 15 18 17 14 10 12 14 8 2 2 4 4 2 5 16 28 28 15 7 11 17 19 21 23 25 26 27 28 28 27 29 30 31 34 37
2 1 2 2 3 3 3 3 3 3 3 3 3 4 3 4 5 6 5 4 5 5 5 4 4 4 2 1 1 2 1 1 2 2 4 4 5 8 9 10 11 11 12 10 7 7 3 3 5 7 7 6 9 15 17 17 11 6 11 13 8 7 7 8 9 11 12 12 19 22 15 14 19 21 22 23 24 26 26 26 27 26 27 28 30 32 36 40
2 1 1 2 2 3 3 3 3 3 3 3 4 4 4 5 7 6 5 4 4 5 6 5 3 5 4 2 1 2 1 1 1 1 3 5 7 9 9 10 11 12 13 11 7 7 6 5 5 5 4 6 11 16 15 14 10 8 12 12 10 12 11 10 11 14 11 6 11 17 19 22 22 20 23 23 23 25 25 25 26 25 26 28 31 36 40 43
3 2 2 2 3 4 4 4 4 4 4 4 5 5 5 6 6 5 4 4 4 5 6 6 4 4 3 1 1 2 0 1 1 1 4 7 7 9 9 10 11 12 12 11 9 9 10 7 3 3 4 8 13 16 14 12 10 10 10 11 12 10 6 7 7 7 6 3 9 16 21 26 20 14 19 22 22 24 24 24 24 23 26 30 36 41 43 46
4 4 3 4 4 5 5 5 4 4 3 4 5 5 6 6 5 4 4 3 5 5 5 6 5 3 2 1 1 0 1 2 2 2 3 6 6 7 8 10 11 12 12 11 9 9 11 8 3 3 7 11 14 16 14 12 9 10 10 9 9 5 4 7 7 5 6 3 6 12 19 25 22 15 17 21 22 24 26 26 24 24 30 35 40 44 45 47
5 5 4 4 5 5 4 4 3 3 3 4 6 6 6 5 5 5 4 4 5 5 4 4 4 2 1 1 3 4 4 3 4 4 4 5 5 5 7 10 11 11 11 11 9 9 10 7 3 5 10 14 15 15 15 14 11 10 10 8 8 6 6 12 14 11 7 4 6 8 10 18 22 18 20 24 25 28 30 28 26 29 36 39 42 45 46 48
5 5 5 5 5 4 3 3 2 2 4 4 5 6 6 6 5 5 5 4 4 4 4 3 3 3 3 4 5 5 5 5 5 5 5 6 6 5 8 10 10 11 11 10 10 10 9 7 8 10 13 14 14 14 15 15 12 11 11 9 12 15 15 18 22 20 13 6 4 3 6 19 27 26 29 31 30 30 28 26 27 33 39 41 43 45 47 50
5 5 5 5 4 3 3 4 4 4 4 5 6 6 6 6 5 5 5 4 3 3 3 3 3 4 5 6 6 6 6 5 5 5 6 7 6 6 8 9 10 10 11 10 9 9 9 10 12 15 16 15 13 13 14 13 12 13 12 11 18 24 22 14 13 18 17 11 10 6 8 26 36 33 33 33 29 27 24 24 31 37 40 42 44 47 50 52
5 5 5 4 4 5 5 5 5 5 5 5 6 6 6 6 6 5 4 4 3 3 4 4 5 6 6 6 7 5 5 5 5 6 6 6 6 6 7 8 9 10 11 10 9 10 12 12 12 15 17 16 12 12 13 11 12 13 13 17 23 25 22 13 10 18 22 18 19 13 10 26 38 33 31 32 27 23 24 30 36 39 41 44 48 51 51 49
3 4 4 4 4 5 5 5 5 5 6 6 6 7 7 6 5 5 4 4 4 4 5 6 6 6 6 6 6 5 4 4 5 5 6 6 6 7 8 8 10 11 10 10 9 12 12 9 12 17 19 17 13 11 11 9 10 15 19 24 25 23 23 20 19 24 24 23 23 12 7 24 35 30 30 31 26 24 28 35 38 40 44 49 52 51 47 46
2 3 4 5 5 5 5 5 4 5 6 6 7 7 6 5 5 5 5 5 5 6 6 6 6 6 5 5 5 5 4 4 4 4 5 6 6 7 7 9 10 10 10 10 10 12 10 8 12 15 15 16 14 10 10 13 16 22 26 26 25 25 24 23 24 23 20 24 26 11 9 28 35 31 34 33 28 30 33 36 38 42 48 52 51 47 45 48
2 2 4 5 5 5 4 4 5 5 5 6 7 7 6 5 5 5 6 6 6 7 6 6 6 5 5 5 5 4 4 4 3 3 4 5 6 7 7 9 9 9 9 9 10 12 10 10 11 8 3 5 9 9 15 23 26 27 28 27 27 27 25 23 24 18 15 21 26 17 19 36 40 36 38 37 32 34 37 38 42 47 52 52 47 45 48 52
2 3 4 5 5 4 4 5 6 7 6 6 7 6 5 5 5 6 7 8 8 7 6 6 5 5 5 4 4 3 4 4 3 4 5 5 6 7 8 9 9 9 9 10 12 12 10 12 14 10 7 8 13 17 20 23 25 28 30 30 30 28 26 26 23 20 21 24 28 30 34 41 42 39 41 39 36 38 41 43 47 52 53 49 46 48 53 55
2 3 5 5 4 4 5 5 6 7 7 6 5 5 5 6 7 7 8 8 7 7 6 5 5 4 4 3 3 3 4 4 4 5 5 6 7 8 8 9 9 8 10 11 12 12 12 14 15 14 14 15 19 23 22 20 23 28 30 32 33 29 27 27 25 27 30 25 26 36 40 39 41 42 41 40 40 41 44 47 52 54 50 46 49 55 57 56
3 4 4 5 5 5 6 6 6 7 6 5 5 5 6 7 8 7 8 8 7 6 5 4 4 3 2 3 3 3 4 5 5 6 6 8 9 9 10 10 8 8 10 10 10 11 13 14 16 18 18 19 22 22 20 22 26 28 30 33 32 26 24 27 28 29 31 27 30 38 40 40 43 42 39 40 40 42 47 51 53 50 46 49 55 58 58 56
3 4 5 5 5 5 6 6 6 6 5 4 5 6 7 8 8 7 8 8 7 5 4 4 3 2 2 3 3 4 5 5 6 7 8 9 9 10 11 10 8 9 10 10 11 12 13 14 17 20 23 26 25 21 22 26 28 31 33 30 24 22 23 26 28 28 28 31 35 37 39 41 41 39 39 41 42 46 50 50 47 46 49 56 59 59 58 56
4 4 5 5 5 5 6 6 5 5 4 5 6 7 7 8 8 8 7 7 6 5 3 3 1 1 2 3 4 5 6 6 7 8 9 9 9 10 10 9 9 10 10 11 12 13 14 16 17 21 28 29 24 24 27 27 28 33 32 22 19 24 28 28 28 27 27 30 33 35 38 41 40 37 40 43 46 49 48 45 45 50 56 60 60 59 57 55
4 4 4 5 4 4 5 5 5 5 5 6 6 7 8 8 8 8 7 6 5 3 2 1 0 1 2 3 4 6 7 7 8 9 10 10 10 10 9 9 9 10 11 12 13 15 16 17 18 22 27 29 27 28 29 29 32 32 23 20 26 31 30 28 27 27 28 30 33 35 39 40 39 39 44 47 48 47 45 46 52 58 61 61 59 58 55 52
3 3 3 3 4 5 5 5 5 5 6 7 7 7 8 8 8 8 6 5 4 2 1 0 1 1 2 3 5 7 8 8 10 11 11 11 10 10 9 9 9 11 12 12 13 16 16 17 20 20 22 29 31 28 30 32 28 20 20 29 35 31 27 29 30 28 28 30 33 36 38 40 41 44 47 47 46 47 50 55 58 60 62 60 57 54 51 47
Wind_Direction
249 243 230 216 213 222 231 233 233 238 246 253 262 266 262 255 245 239 243 245 237 228 227 225 220 216 214 219 214 200 199 189 183 188 180 187 205 219 228 226 231 235 238 241 241 243 244 244 247 250 254 255 257 264 272 276 277 274 272 271 273 278 277 264 250 245 249 262 282 282 277 278 280 282 288 294 296 294 294 296 300 297 282 270 260 263 266 263
223 219 207 203 207 217 222 218 217 228 234 237 248 256 259 254 238 234 243 246 238 231 228 214 203 207 205 198 192 183 172 164 169 185 199 206 211 220 226 227 230 236 240 243 245 246 248 250 251 252 257 261 262 266 272 272 270 270 273 271 272 278 271 258 247 248 254 261 270 276 278 280 284 287 291 293 290 291 292 288 276 242 240 244 246 253 256 260
169 172 179 190 200 209 211 204 205 211 215 220 232 245 244 227 207 204 217 226 218 202 189 188 191 195 188 169 162 176 175 173 180 192 209 214 213 220 226 228 232 238 245 250 252 252 254 255 255 255 256 259 260 263 265 266 266 264 265 270 281 284 266 260 254 253 258 261 265 271 276 279 284 290 294 292 288 294 289 268 252 230 225 235 247 252 254 260
143 144 156 180 192 197 197 194 196 200 207 209 211 221 207 182 176 180 179 174 157 144 154 171 180 179 171 159 163 180 180 184 192 198 214 219 221 228 232 236 240 245 251 256 257 256 258 260 260 259 257 258 259 262 263 265 266 259 258 268 283 283 272 270 268 267 266 267 269 272 279 284 292 300 303 297 288 280 269 259 254 246 236 237 247 255 259 263
133 134 146 169 178 183 187 187 190 195 203 202 191 188 183 175 181 186 179 164 153 153 154 152 153 157 162 166 176 183 179 187 200 209 220 223 225 230 237 244 247 251 255 258 261 261 263 265 266 265 265 263 261 265 264 256 258 258 261 270 278 277 280 286 281 279 278 277 280 285 290 294 302 308 306 297 278 262 261 263 259 255 250 247 252 261 267 270
133 135 145 156 150 162 175 179 185 192 198 197 185 178 178 175 180 183 173 161 154 151 149 149 153 162 171 178 185 184 182 192 202 209 219 225 232 242 250 253 254 257 259 261 263 265 265 267 271 272 273 268 264 267 257 242 248 259 267 276 279 278 285 294 292 290 287 287 291 291 292 300 307 307 299 285 266 264 269 269 262 257 256 258 265 271 276 280
136 136 142 146 145 157 172 183 194 197 193 190 189 186 181 177 176 177 172 165 163 161 161 164 169 177 183 190 195 191 195 204 205 214 228 240 249 255 256 254 257 259 260 266 269 271 272 274 277 278 276 269 265 260 249 245 250 262 272 278 277 278 287 294 293 289 285 286 287 286 295 305 303 298 299 286 255 259 266 268 262 259 260 265 274 280 286 288
137 138 144 147 149 153 164 185 202 209 203 186 190 205 197 184 180 181 180 177 175 173 176 180 184 191 195 201 204 206 213 215 223 235 242 251 256 256 256 259 263 264 268 273 273 274 278 282 278 275 272 264 260 255 254 256 257 265 274 277 276 280 286 288 286 285 282 280 280 290 307 301 286 289 302 272 222 244 249 257 256 258 266 271 278 284 291 292
140 144 154 160 160 158 156 161 180 209 215 194 173 192 208 199 191 188 187 186 183 181 186 192 195 200 205 208 212 222 226 223 235 250 255 261 263 261 262 266 266 265 272 274 273 277 280 280 273 269 269 265 263 261 262 264 264 268 274 276 279 285 287 286 285 285 284 281 286 301 297 264 259 262 245 193 194 230 239 253 258 264 268 272 281 287 291 292
146 144 154 179 183 180 183 180 161 186 205 193 175 190 214 209 199 195 192 187 184 184 185 191 196 202 209 211 220 233 236 235 242 256 262 264 264 264 266 270 271 270 273 275 276 278 274 272 272 273 272 269 269 268 267 268 272 277 277 276 283 292 291 293 293 287 295 304 80 191 213 229 239 228 214 200 214 231 243 257 264 267 267 274 284 288 291 290
160 144 145 178 199 203 209 204 171 163 187 187 195 223 225 210 204 200 194 190 187 185 187 193 200 207 215 221 233 239 242 246 253 260 261 262 261 263 269 271 272 273 275 274 268 264 268 271 276 278 274 273 276 276 277 276 279 283 279 280 291 297 303 353 2 57 46 62 141 210 242 265 239 222 212 213 230 237 245 255 262 267 269 279 288 291 292 288
185 179 154 171 194 201 200 189 173 178 193 198 218 234 221 207 208 207 203 202 198 198 201 208 213 222 230 232 239 243 248 253 259 263 262 263 263 265 272 272 272 273 274 271 264 262 270 278 279 277 276 279 280 279 282 281 283 286 285 292 300 273 131 80 109 98 32 64 208 273 283 261 225 220 218 222 235 242 248 254 260 267 272 281 289 290 289 283
193 191 176 170 174 178 176 176 179 180 194 215 222 214 205 202 207 210 212 212 212 214 217 223 227 231 237 238 242 247 253 260 262 262 261 262 266 272 274 274 276 276 273 270 270 273 278 282 281 279 281 284 282 280 279 280 285 287 286 293 290 171 173 159 149 286 347 36 302 299 280 258 233 219 220 227 234 242 251 257 261 266 272 282 288 287 284 281
185 182 173 161 157 155 151 155 161 161 174 196 194 179 176 185 197 206 210 212 216 220 222 227 231 237 242 243 248 254 261 264 260 259 263 266 271 275 276 279 282 279 276 275 278 281 283 285 284 284 285 285 284 284 285 285 285 283 282 278 260 220 238 307 325 315 340 342 313 305 280 268 250 227 222 228 237 246 252 256 260 265 274 282 285 283 281 282
174 169 156 146 140 136 133 133 132 130 135 139 139 142 145 157 172 182 190 198 205 209 215 221 228 237 246 250 255 261 262 260 261 266 269 271 272 274 275 280 285 286 285 286 285 283 284 286 285 285 287 287 286 285 290 290 274 276 273 236 263 276 279 310 327 323 312 298 296 293 274 264 252 235 229 235 246 253 256 260 264 269 276 280 279 278 280 282
162 151 143 137 131 127 127 124 120 119 121 121 125 129 133 142 152 160 169 175 182 192 201 205 215 229 249 262 264 263 263 264 266 268 270 275 279 278 275 274 277 278 280 282 280 281 285 286 282 283 286 285 276 275 282 265 243 276 283 275 288 292 293 304 314 309 307 300 289 274 260 256 250 245 246 252 259 263 267 271 273 275 275 275 275 277 279 283
150 141 137 133 127 127 126 119 111 108 107 111 126 135 140 145 147 152 156 160 170 181 187 198 220 238 260 269 267 264 264 264 261 266 278 285 287 286 283 281 274 266 270 276 279 283 287 282 272 278 276 269 266 276 286 261 266 292 298 296 298 299 301 303 307 307 303 297 283 262 252 255 256 258 262 265 269 272 275 277 278 278 277 276 277 278 280 284
142 139 138 133 128 128 126 117 108 102 94 96 120 137 150 153 149 152 156 165 184 194 203 229 241 247 254 251 251 254 255 258 262 273 283 286 287 287 285 284 280 276 279 282 286 283 271 262 268 276 277 276 281 290 295 288 293 303 303 302 301 300 302 304 305 304 297 287 269 253 251 257 262 266 269 271 274 276 275 275 276 276 277 278 279 280 282 283
140 140 138 132 131 129 121 113 108 102 93 92 97 103 121 135 145 155 155 175 241 248 242 241 242 246 249 251 255 259 263 265 268 273 277 280 284 284 284 285 284 284 282 278 278 264 253 267 279 288 286 281 291 295 293 296 299 301 299 300 301 300 302 303 301 298 295 286 250 248 253 258 264 270 273 276 277 276 274 273 273 273 275 276 277 279 280 279
142 141 138 134 133 127 117 108 102 96 90 85 79 78 78 81 135 154 151 292 279 275 262 252 254 258 259 265 268 271 280 280 277 276 274 280 288 290 292 290 284 281 281 280 276 264 266 296 308 314 306 275 282 286 292 300 299 298 298 298 299 300 301 300 295 293 298 302 219 235 251 263 269 272 274 275 274 273 272 272 272 273 273 274 275 277 278 278
146 144 142 141 137 130 123 114 105 98 91 81 63 62 61 60 120 154 292 291 284 276 261 250 248 253 257 271 281 296 341 320 304 308 307 304 301 296 289 282 278 276 283 291 290 292 305 322 323 316 304 291 290 295 301 302 297 294 293 294 297 300 305 309 306 296 288 292 263 254 264 269 270 271 271 270 269 269 269 271 271 272 273 274 276 277 278 279
149 151 149 148 145 139 138 133 123 109 98 93 63 54 63 61 79 309 291 266 263 235 182 154 139 121 96 45 357 353 27 354 333 351 341 311 280 289 290 284 276 271 282 295 305 315 324 328 302 292 298 293 296 302 304 300 294 291 291 296 303 308 314 322 327 306 285 290 287 272 268 268 268 269 267 265 264 265 267 269 270 272 274 276 277 278 278 278
154 155 151 150 154 154 157 159 159 142 104 98 67 47 63 63 46 338 282 145 118 114 105 102 102 97 81 32 2 333 341 331 307 299 295 285 289 301 298 288 285 285 296 307 310 311 313 307 292 297 303 300 304 305 302 299 296 297 301 310 320 325 324 315 307 299 288 288 285 272 264 264 268 267 263 264 264 263 265 268 271 273 275 276 275 275 274 273
162 157 147 144 154 174 184 188 195 195 176 93 57 34 41 27 357 348 111 115 104 99 95 97 99 85 47 8 358 327 323 319 301 319 298 308 322 322 315 299 297 300 300 304 303 294 293 295 296 304 310 311 312 309 308 310 314 322 323 323 325 324 318 309 307 305 299 294 283 271 264 259 260 260 262 265 265 264 266 269 272 274 275 275 274 273 273 274
172 164 155 150 150 188 210 217 214 225 248 242 329 2 11 319 328 351 126 121 99 99 99 101 98 52 11 3 356 341 358 23 21 15 356 342 344 338 331 316 312 309 294 291 287 281 284 289 299 310 317 323 326 327 331 336 341 341 333 326 323 320 318 316 313 309 308 306 251 238 288 264 261 266 267 269 269 268 270 271 273 274 274 274 273 275 276 279
186 183 188 199 209 229 246 236 224 240 250 243 271 318 340 281 317 348 144 138 98 110 114 105 89 27 8 3 2 4 19 30 28 20 8 360 360 349 340 339 341 325 280 288 277 250 251 283 306 323 331 335 341 344 348 348 346 342 331 326 325 323 325 322 315 309 308 304 237 248 275 263 269 275 273 275 275 275 276 275 274 273 272 272 274 277 280 284
209 214 223 233 246 257 263 250 236 243 248 250 269 306 321 303 324 329 154 136 69 112 118 100 58 9 9 11 13 16 10 9 20 12 6 11 14 6 358 358 355 321 211 191 172 170 165 319 323 341 343 329 330 346 352 350 345 339 329 328 328 329 328 322 317 310 299 297 290 280 267 252 268 277 276 278 277 277 278 275 273 272 271 273 276 280 283 287
232 236 240 245 253 258 258 251 242 244 250 254 277 307 309 322 317 263 161 123 70 104 90 67 37 355 356 9 14 20 21 5 358 7 12 15 19 28 31 15 10 60 121 115 119 168 210 326 332 341 338 324 340 351 350 346 343 337 332 331 331 331 327 321 317 306 297 299 300 327 360 271 268 278 281 280 276 275 277 276 275 275 274 276 278 281 285 290
247 249 251 254 254 252 247 243 242 248 257 263 284 303 291 308 283 201 164 137 148 94 43 45 28 354 348 8 12 14 34 25 11 18 20 25 39 53 61 48 68 100 102 83 32 359 274 324 338 335 329 337 348 350 344 343 341 336 334 334 333 331 327 324 319 311 311 307 287 293 8 358 285 285 286 276 274 277 279 279 278 278 278 279 281 285 290 294
258 256 256 256 250 246 239 240 247 251 260 268 276 275 276 278 217 178 149 167 159 78 54 28 3 358 357 7 3 13 55 52 27 27 29 34 41 56 81 64 84 105 55 22 4 3 337 328 338 336 326 335 341 342 342 342 339 337 337 332 331 333 334 329 318 332 337 307 284 281 331 340 314 293 291 276 275 280 279 279 280 281 283 285 288 293 297 301
262 255 253 250 243 239 236 240 248 249 258 255 243 260 265 233 192 170 135 160 151 49 168 319 345 58 49 20 51 54 64 51 30 38 44 38 28 48 88 51 55 178 359 23 30 16 348 330 340 343 325 324 330 336 344 341 339 339 334 333 337 339 341 333 289 336 334 272 304 311 315 317 294 287 293 282 282 284 280 280 281 282 284 289 295 301 306 310
266 251 246 240 231 231 232 234 234 232 233 224 234 260 239 196 174 140 126 158 166 185 213 261 197 150 123 81 88 72 60 34 29 37 43 47 39 45 53 40 46 76 15 24 29 21 18 26 19 343 325 324 328 335 342 342 341 337 332 345 353 350 348 346 270 316 263 254 300 308 309 303 276 280 289 286 286 284 280 279 278 279 284 291 298 305 312 317
272 251 233 223 214 213 214 209 207 210 215 223 248 253 213 182 148 136 131 151 176 196 216 206 170 153 133 95 75 63 48 22 31 38 35 42 43 42 48 43 44 49 35 25 24 29 48 38 4 336 330 326 329 340 344 344 339 334 345 1 5 9 1 327 281 306 269 285 304 308 306 290 273 283 288 288 285 279 276 275 274 278 284 292 300 307 314 319
288 257 229 214 200 198 199 196 201 211 221 237 247 229 202 177 160 166 166 173 185 198 201 183 170 160 142 117 85 61 18 12 35 43 38 43 42 44 57 53 41 39 36 28 23 34 52 350 330 330 330 318 324 342 344 341 335 326 344 355 351 3 357 269 262 275 276 297 307 309 304 269 276 288 287 287 282 277 277 274 276 282 288 296 303 309 315 319
326 286 237 217 202 201 200 200 215 225 234 245 230 212 200 181 175 178 183 191 192 186 181 178 177 177 182 203 85 43 27 353 20 46 47 51 43 40 52 47 33 31 31 25 24 31 22 324 322 319 319 307 319 338 341 340 338 313 325 338 335 322 298 264 265 276 282 298 304 302 294 282 285 286 285 285 281 279 279 277 282 289 295 302 307 314 319 321
340 315 252 223 212 214 218 223 234 238 238 231 214 207 200 183 175 177 186 193 187 180 180 176 181 197 207 228 313 354 3 341 5 54 36 40 42 35 37 36 28 25 25 22 23 17 359 341 327 314 314 312 324 337 338 336 332 313 320 326 318 311 297 278 281 288 294 296 287 290 291 290 290 288 288 285 279 279 278 281 287 292 300 307 313 318 320 321
298 279 260 241 233 234 235 235 234 231 223 209 203 206 198 182 171 172 177 176 169 172 184 187 194 212 214 190 271 304 255 116 85 57 27 33 33 22 25 29 26 23 20 17 15 3 351 343 323 301 315 321 328 332 331 330 323 312 315 317 314 309 286 285 300 307 317 285 273 283 284 286 285 280 283 282 279 282 283 286 288 292 304 313 319 321 322 322
274 267 256 247 241 235 233 230 226 217 204 200 201 194 184 177 168 163 162 165 163 161 182 200 202 204 211 177 169 112 146 142 103 88 49 36 27 19 21 18 19 23 17 13 11 357 347 339 312 306 324 328 330 326 325 329 320 306 305 310 322 321 281 298 311 307 308 296 278 282 282 283 278 270 280 286 288 293 295 291 288 300 315 320 321 320 319 318
278 272 258 250 242 237 236 234 228 207 196 203 200 185 172 166 159 158 161 164 163 159 172 191 186 168 154 129 111 100 114 126 92 75 56 35 33 29 17 11 15 17 12 9 6 354 346 334 301 311 324 328 329 325 325 325 319 310 299 294 319 333 313 307 304 290 279 281 290 291 288 284 281 285 295 296 297 300 297 290 292 311 320 320 319 317 316 315
279 269 255 250 245 244 242 225 201 191 194 195 187 177 166 162 158 156 158 155 154 158 164 163 148 137 133 109 98 93 90 93 79 63 53 43 39 25 14 12 10 5 4 4 356 350 346 321 299 311 324 331 330 325 322 320 316 311 300 298 320 329 326 312 301 292 275 256 280 307 289 283 286 295 299 299 301 298 292 290 301 313 316 315 315 315 315 315
269 257 245 243 234 214 201 185 176 180 181 173 170 166 157 158 157 152 151 145 139 147 148 140 125 122 119 98 86 85 82 76 66 56 47 37 30 18 9 7 4 359 356 355 350 345 337 312 301 313 327 335 330 319 315 314 311 305 301 313 323 326 327 316 296 295 286 264 267 276 277 283 288 296 298 301 303 294 289 300 310 314 314 314 315 315 314 314
251 240 225 216 196 179 171 168 172 173 168 163 164 160 154 155 155 152 153 146 147 150 132 121 118 109 100 88 78 78 79 66 56 52 39 28 22 11 2 360 359 354 350 349 344 338 332 316 304 314 326 333 328 315 312 312 308 299 294 307 315 320 320 306 282 296 296 282 276 271 262 282 290 297 301 303 300 289 296 310 315 316 316 316 316 314 313 312
225 205 185 171 164 161 159 162 168 168 163 162 161 158 155 154 156 159 162 154 149 142 125 114 111 103 93 85 76 68 63 51 47 42 28 21 12 2 357 350 349 349 348 347 340 336 335 322 315 321 326 330 327 315 309 305 299 295 296 305 311 314 313 304 291 290 287 280 279 273 259 284 292 299 303 302 294 290 304 314 315 315 315 315 315 313 312 311
177 163 152 149 149 153 157 159 163 168 169 164 159 158 158 158 162 161 156 149 140 131 122 110 107 106 95 83 72 60 49 40 37 29 19 12 0 355 350 343 344 346 346 344 338 337 338 325 322 328 333 335 335 328 317 312 307 304 306 311 314 313 313 307 295 286 274 273 277 264 259 285 293 301 303 300 294 297 308 312 312 313 313 314 314 314 314 313
154 144 143 147 147 151 160 164 164 167 171 167 161 161 163 161 162 156 143 137 135 130 123 115 111 107 93 75 61 49 42 39 33 20 12 3 352 346 342 341 343 341 342 343 337 335 334 326 326 330 329 323 317 311 316 316 313 310 311 313 314 314 313 308 297 280 262 274 276 262 269 288 296 302 302 301 299 302 307 307 308 311 313 315 316 316 315 314
164 147 147 151 154 159 164 172 173 162 159 167 166 165 166 157 151 149 140 135 135 129 122 122 115 101 86 68 53 45 34 31 25 7 2 358 345 340 339 342 342 340 342 341 336 335 332 328 328 321 300 296 300 306 315 314 308 308 312 313 316 316 313 308 297 278 276 283 281 278 285 293 298 303 304 302 300 301 304 306 310 313 314 316 317 316 315 315
161 150 151 154 163 173 169 171 172 159 156 170 172 167 165 155 148 147 141 138 138 132 128 124 106 91 83 64 56 49 27 20 13 358 353 347 340 339 342 343 342 341 341 339 336 333 328 327 326 318 311 311 312 315 318 312 306 309 312 314 318 319 312 303 293 287 291 288 281 289 296 295 298 303 305 302 300 301 304 309 313 314 315 316 316 315 315 316
167 157 161 165 171 177 172 170 167 156 157 172 173 169 164 154 151 150 143 142 143 140 138 121 93 79 77 65 47 34 23 13 0 350 344 342 340 340 342 340 339 340 338 335 332 327 324 325 324 319 315 316 318 319 318 314 312 312 312 314 316 316 309 301 294 295 295 284 281 294 298 294 298 304 304 301 301 303 306 310 312 313 314 314 315 316 317 317
165 165 170 173 174 171 167 165 159 150 160 179 172 165 160 152 152 153 148 146 147 144 136 113 91 79 71 55 30 17 13 3 353 345 340 342 341 338 338 336 333 335 333 329 329 328 326 325 325 321 317 318 322 323 321 320 316 314 315 317 315 311 309 304 299 299 294 286 289 296 294 294 301 306 304 301 302 304 308 310 311 312 313 315 316 318 318 317
169 171 173 172 169 163 157 155 154 156 170 179 170 160 157 154 152 152 151 148 146 142 129 110 97 74 53 34 12 6 1 353 349 344 339 341 339 335 334 331 329 329 329 328 329 331 330 326 326 322 316 318 327 328 324 321 314 313 318 321 318 317 316 311 306 302 295 291 295 295 290 295 305 306 303 303 305 309 311 311 311 312 314 317 319 319 318 316
174 173 177 172 160 154 155 158 165 172 171 167 163 158 157 156 153 153 154 150 146 140 125 116 32 27 40 15 356 357 356 349 346 342 339 337 334 332 331 329 328 326 327 329 328 329 330 323 321 320 313 316 328 329 323 321 315 313 320 326 324 322 319 313 309 304 297 294 296 294 292 300 307 306 305 307 309 311 311 311 312 314 317 319 319 318 317 317
179 180 186 180 163 158 165 169 170 172 167 161 160 160 159 159 159 160 159 155 152 145 138 184 320 8 12 358 351 351 351 346 343 340 336 333 331 330 329 326 326 324 324 327 325 325 325 319 319 319 309 314 327 329 322 322 319 317 325 326 324 323 319 314 309 305 302 299 297 296 298 304 308 307 308 310 312 312 311 312 313 315 317 318 317 317 316 314